| time (UTC) | temp F | wind direction | speed MPH | gust MPH | rain 1hr in | rain 24hr in | rain mn in | humidity % | barometer mb |
| 20260831175029 | 74 | 271 | 3.0 | 9.0 | 0.00 | 0.00 | 0.00 | 50 | 1019.4 |
| 20260831174551 | 74 | 208 | 4.0 | 8.0 | 0.00 | 0.00 | 0.00 | 52 | 1019.3 |
| 20260831174033 | 73 | 285 | 3.0 | 8.0 | 0.00 | 0.00 | 0.00 | 52 | 1019.5 |
| 20260831173530 | 73 | 219 | 2.0 | 8.0 | 0.00 | 0.00 | 0.00 | 52 | 1019.7 |
| 20260831173041 | 73 | 226 | 4.0 | 8.0 | 0.00 | 0.00 | 0.00 | 50 | 1019.8 |
| 20260831172529 | 73 | 230 | 2.0 | 9.0 | 0.00 | 0.00 | 0.00 | 53 | 1019.8 |
| 20260831172032 | 73 | 241 | 3.0 | 9.0 | 0.00 | 0.00 | 0.00 | 55 | 1019.8 |
| 20260831171546 | 72 | 236 | 2.0 | 9.0 | 0.00 | 0.00 | 0.00 | 55 | 1019.9 |
| 20260831171028 | 72 | 266 | 5.0 | 9.0 | 0.00 | 0.00 | 0.00 | 52 | 1019.8 |
| 20260831170529 | 73 | 219 | 2.0 | 8.0 | 0.00 | 0.00 | 0.00 | 51 | 1019.8 |
| 20260831170052 | 72 | 0 | 2.0 | 8.0 | 0.00 | 0.00 | 0.00 | 49 | 1019.9 |
| 20260831165528 | 72 | 164 | 1.0 | 7.0 | 0.00 | 0.00 | 0.00 | 49 | 1020.1 |
| 20260831165029 | 72 | 0 | 2.0 | 10.0 | 0.00 | 0.00 | 0.00 | 46 | 1020.1 |
| 20260831164548 | 72 | 0 | 3.0 | 10.0 | 0.00 | 0.00 | 0.00 | 45 | 1020.1 |
| 20260831164029 | 72 | 239 | 3.0 | 10.0 | 0.00 | 0.00 | 0.00 | 44 | 1020.2 |
| 20260831163530 | 71 | 231 | 3.0 | 9.0 | 0.00 | 0.00 | 0.00 | 49 | 1020.2 |
| 20260831163044 | 70 | 204 | 4.0 | 14.0 | 0.00 | 0.00 | 0.00 | 48 | 1020.2 |
| 20260831162529 | 71 | 243 | 6.0 | 14.0 | 0.00 | 0.00 | 0.00 | 49 | 1020.2 |
| 20260831162031 | 71 | 277 | 4.0 | 9.0 | 0.00 | 0.00 | 0.00 | 51 | 1020.4 |
| 20260831161549 | 71 | 246 | 4.0 | 11.0 | 0.00 | 0.00 | 0.00 | 51 | 1020.3 |
| 20260831161029 | 71 | 216 | 5.0 | 11.0 | 0.00 | 0.00 | 0.00 | 50 | 1020.2 |
| 20260831160528 | 71 | 219 | 5.0 | 9.0 | 0.00 | 0.00 | 0.00 | 50 | 1020.2 |
| 20260831160042 | 72 | 250 | 2.0 | 9.0 | 0.00 | 0.00 | 0.00 | 49 | 1020.2 |
| 20260831155528 | 71 | 223 | 3.0 | 9.0 | 0.00 | 0.00 | 0.00 | 52 | 1020.3 |
| 20260831155029 | 71 | 331 | 2.0 | 8.0 | 0.00 | 0.00 | 0.00 | 54 | 1020.4 |
| 20260831154608 | 71 | 224 | 1.0 | 7.0 | 0.00 | 0.00 | 0.00 | 54 | 1020.2 |
| 20260831154026 | 70 | 0 | 1.0 | 7.0 | 0.00 | 0.00 | 0.00 | 49 | 1020.3 |
| 20260831153533 | 70 | 336 | 2.0 | 9.0 | 0.00 | 0.00 | 0.00 | 56 | 1020.3 |
| 20260831153048 | 70 | 0 | 1.0 | 9.0 | 0.00 | 0.00 | 0.00 | 55 | 1020.2 |
| 20260831152533 | 70 | 246 | 2.0 | 8.0 | 0.00 | 0.00 | 0.00 | 55 | 1020.2 |
| 20260831152032 | 70 | 221 | 2.0 | 5.0 | 0.00 | 0.00 | 0.00 | 54 | 1020.2 |
| 20260831151543 | 70 | 279 | 1.0 | 6.0 | 0.00 | 0.00 | 0.00 | 54 | 1020.3 |
| 20260831151030 | 70 | 313 | 1.0 | 9.0 | 0.00 | 0.00 | 0.00 | 56 | 1020.4 |
| 20260831150530 | 70 | 259 | 2.0 | 9.0 | 0.00 | 0.00 | 0.00 | 53 | 1020.5 |
| 20260831150042 | 69 | 343 | 3.0 | 9.0 | 0.00 | 0.00 | 0.00 | 54 | 1020.4 |
| 20260831145528 | 69 | 318 | 1.0 | 5.0 | 0.00 | 0.00 | 0.00 | 55 | 1020.4 |
| 20260831145028 | 69 | 62 | 1.0 | 9.0 | 0.00 | 0.00 | 0.00 | 56 | 1020.5 |
| 20260831144621 | 68 | 338 | 2.0 | 9.0 | 0.00 | 0.00 | 0.00 | 58 | 1020.5 |
| 20260831144028 | 68 | 80 | 2.0 | 7.0 | 0.00 | 0.00 | 0.00 | 56 | 1020.5 |
| 20260831143531 | 68 | 33 | 1.0 | 8.0 | 0.00 | 0.00 | 0.00 | 56 | 1020.6 |
| 20260831143043 | 68 | 0 | 1.0 | 8.0 | 0.00 | 0.00 | 0.00 | 58 | 1020.6 |
| 20260831142532 | 68 | 324 | 2.0 | 7.0 | 0.00 | 0.00 | 0.00 | 55 | 1020.6 |
| 20260831142030 | 68 | 248 | 2.0 | 6.0 | 0.00 | 0.00 | 0.00 | 60 | 1020.5 |
| 20260831141544 | 68 | 5 | 1.0 | 7.0 | 0.00 | 0.00 | 0.00 | 59 | 1020.5 |
| 20260831141029 | 67 | 268 | 1.0 | 9.0 | 0.00 | 0.00 | 0.00 | 58 | 1020.5 |
| 20260831140529 | 67 | 255 | 2.0 | 9.0 | 0.00 | 0.00 | 0.00 | 62 | 1020.5 |
| 20260831140040 | 66 | 280 | 2.0 | 5.0 | 0.00 | 0.00 | 0.00 | 62 | 1020.4 |
| 20260831135530 | 66 | 270 | 2.0 | 9.0 | 0.00 | 0.00 | 0.00 | 63 | 1020.4 |
| 20260831135032 | 66 | 289 | 3.0 | 9.0 | 0.00 | 0.00 | 0.00 | 61 | 1020.4 |
| 20260831134545 | 65 | 340 | 3.0 | 9.0 | 0.00 | 0.00 | 0.00 | 64 | 1020.2 |
| 20260831134029 | 65 | 352 | 2.0 | 7.0 | 0.00 | 0.00 | 0.00 | 65 | 1020.3 |
| 20260831133529 | 64 | 338 | 1.0 | 5.0 | 0.00 | 0.00 | 0.00 | 67 | 1020.3 |
| 20260831133052 | 64 | 54 | 2.0 | 5.0 | 0.00 | 0.00 | 0.00 | 69 | 1020.3 |
| 20260831132529 | 64 | 227 | 1.0 | 7.0 | 0.00 | 0.00 | 0.00 | 71 | 1020.3 |
| 20260831132032 | 63 | 259 | 1.0 | 10.0 | 0.00 | 0.00 | 0.00 | 71 | 1020.3 |
| 20260831131550 | 63 | 5 | 3.0 | 10.0 | 0.00 | 0.00 | 0.00 | 71 | 1020.4 |
| 20260831131031 | 63 | 336 | 1.0 | 8.0 | 0.00 | 0.00 | 0.00 | 74 | 1020.4 |
| 20260831130534 | 62 | 328 | 2.0 | 8.0 | 0.00 | 0.00 | 0.00 | 75 | 1020.4 |
| 20260831130045 | 62 | 36 | 1.0 | 7.0 | 0.00 | 0.00 | 0.00 | 75 | 1020.5 |
| 20260831125532 | 62 | 254 | 2.0 | 7.0 | 0.00 | 0.00 | 0.00 | 77 | 1020.5 |
| 20260831125031 | 61 | 216 | 2.0 | 4.0 | 0.00 | 0.00 | 0.00 | 78 | 1020.5 |
| 20260831124545 | 60 | 0 | 0.0 | 4.0 | 0.00 | 0.00 | 0.00 | 78 | 1020.6 |
| 20260831124030 | 59 | 246 | 2.0 | 5.0 | 0.00 | 0.00 | 0.00 | 81 | 1020.5 |
| 20260831123529 | 59 | 337 | 2.0 | 5.0 | 0.00 | 0.00 | 0.00 | 82 | 1020.5 |
| 20260831123054 | 58 | 59 | 1.0 | 4.0 | 0.00 | 0.00 | 0.00 | 85 | 1020.5 |
| 20260831122530 | 57 | 0 | 0.0 | 0.0 | 0.00 | 0.00 | 0.00 | 88 | 1020.4 |
| 20260831122029 | 57 | 0 | 0.0 | 0.0 | 0.00 | 0.00 | 0.00 | 91 | 1020.4 |
| 20260831121549 | 57 | 0 | 0.0 | 0.0 | 0.00 | 0.00 | 0.00 | 92 | 1020.4 |
| 20260831121033 | 56 | 0 | 0.0 | 2.0 | 0.00 | 0.00 | 0.00 | 93 | 1020.4 |
| 20260831120531 | 56 | 0 | 0.0 | 2.0 | 0.00 | 0.00 | 0.00 | 94 | 1020.5 |
| 20260831120044 | 56 | 0 | 0.0 | 2.0 | 0.00 | 0.00 | 0.00 | 94 | 1020.6 |
| 20260831115531 | 55 | 0 | 0.0 | 3.0 | 0.00 | 0.00 | 0.00 | 95 | 1020.5 |
| 20260831115033 | 55 | 0 | 0.0 | 3.0 | 0.00 | 0.00 | 0.00 | 95 | 1020.4 |
| 20260831114557 | 55 | 262 | 1.0 | 2.0 | 0.00 | 0.00 | 0.00 | 95 | 1020.4 |
| 20260831114032 | 54 | 292 | 1.0 | 2.0 | 0.00 | 0.00 | 0.00 | 95 | 1020.3 |
| 20260831113530 | 54 | 343 | 0.0 | 1.0 | 0.00 | 0.00 | 0.00 | 94 | 1020.3 |
| 20260831113057 | 54 | 0 | 0.0 | 0.0 | 0.00 | 0.00 | 0.00 | 94 | 1020.2 |
| 20260831112533 | 54 | 0 | 0.0 | 1.0 | 0.00 | 0.00 | 0.00 | 95 | 1020.2 |
| 20260831112030 | 54 | 0 | 0.0 | 1.0 | 0.00 | 0.00 | 0.00 | 94 | 1020.2 |
| 20260831111554 | 54 | 0 | 0.0 | 1.0 | 0.00 | 0.00 | 0.00 | 94 | 1020.1 |
| 20260831111031 | 54 | 0 | 0.0 | 1.0 | 0.00 | 0.00 | 0.00 | 94 | 1020.0 |
| 20260831110529 | 54 | 0 | 0.0 | 3.0 | 0.00 | 0.00 | 0.00 | 94 | 1020.0 |
| 20260831110045 | 54 | 0 | 0.0 | 3.0 | 0.00 | 0.00 | 0.00 | 95 | 1020.1 |
| 20260831105527 | 54 | 350 | 0.0 | 3.0 | 0.00 | 0.00 | 0.00 | 94 | 1020.2 |
| 20260831105030 | 54 | 0 | 0.0 | 1.0 | 0.00 | 0.00 | 0.00 | 94 | 1020.0 |
| 20260831104555 | 54 | 0 | 0.0 | 1.0 | 0.00 | 0.00 | 0.00 | 94 | 1020.0 |
| 20260831104027 | 54 | 0 | 0.0 | 3.0 | 0.00 | 0.00 | 0.00 | 94 | 1020.0 |
| 20260831103529 | 54 | 0 | 0.0 | 3.0 | 0.00 | 0.00 | 0.00 | 95 | 1020.0 |
| 20260831103051 | 54 | 0 | 0.0 | 5.0 | 0.00 | 0.00 | 0.00 | 95 | 1019.9 |
| 20260831102529 | 54 | 0 | 1.0 | 5.0 | 0.00 | 0.00 | 0.00 | 95 | 1019.8 |
| 20260831102027 | 54 | 289 | 0.0 | 2.0 | 0.00 | 0.00 | 0.00 | 94 | 1020.0 |
| 20260831101551 | 54 | 0 | 0.0 | 2.0 | 0.00 | 0.00 | 0.00 | 94 | 1019.9 |
| 20260831101028 | 54 | 323 | 0.0 | 2.0 | 0.00 | 0.00 | 0.00 | 94 | 1019.9 |
| 20260831100532 | 54 | 0 | 0.0 | 3.0 | 0.00 | 0.00 | 0.00 | 94 | 1019.9 |
| 20260831100111 | 54 | 0 | 0.0 | 3.0 | 0.00 | 0.00 | 0.00 | 94 | 1019.9 |
| 20260831095529 | 54 | 332 | 0.0 | 2.0 | 0.00 | 0.00 | 0.00 | 94 | 1019.8 |
| 20260831095029 | 54 | 0 | 0.0 | 1.0 | 0.00 | 0.00 | 0.00 | 94 | 1019.8 |
| 20260831094543 | 54 | 0 | 0.0 | 1.0 | 0.00 | 0.00 | 0.00 | 94 | 1019.8 |
| 20260831094030 | 54 | 0 | 0.0 | 2.0 | 0.00 | 0.00 | 0.00 | 94 | 1019.7 |
| 20260831093535 | 54 | 0 | 0.0 | 2.0 | 0.00 | 0.00 | 0.00 | 94 | 1019.7 |
| 20260831093051 | 54 | 0 | 0.0 | 2.0 | 0.00 | 0.00 | 0.00 | 94 | 1019.7 |
| 20260831092529 | 54 | 0 | 0.0 | 2.0 | 0.00 | 0.00 | 0.00 | 94 | 1019.7 |
| 20260831092026 | 54 | 0 | 0.0 | 2.0 | 0.00 | 0.00 | 0.00 | 94 | 1019.6 |
| 20260831091551 | 54 | 0 | 0.0 | 0.0 | 0.00 | 0.00 | 0.00 | 94 | 1019.7 |
| 20260831091030 | 54 | 0 | 0.0 | 0.0 | 0.00 | 0.00 | 0.00 | 93 | 1019.7 |
| 20260831090530 | 54 | 0 | 0.0 | 0.0 | 0.00 | 0.00 | 0.00 | 94 | 1019.7 |
| 20260831090041 | 54 | 0 | 0.0 | 0.0 | 0.00 | 0.00 | 0.00 | 94 | 1019.7 |
| 20260831085528 | 54 | 0 | 0.0 | 0.0 | 0.00 | 0.00 | 0.00 | 93 | 1019.4 |
| 20260831085031 | 54 | 0 | 0.0 | 0.0 | 0.00 | 0.00 | 0.00 | 93 | 1019.4 |
| 20260831084606 | 54 | 0 | 0.0 | 0.0 | 0.00 | 0.00 | 0.00 | 93 | 1019.4 |
| 20260831084029 | 54 | 0 | 0.0 | 0.0 | 0.00 | 0.00 | 0.00 | 92 | 1019.4 |
| 20260831083528 | 54 | 0 | 0.0 | 0.0 | 0.00 | 0.00 | 0.00 | 92 | 1019.4 |
| 20260831083041 | 55 | 0 | 0.0 | 2.0 | 0.00 | 0.00 | 0.00 | 92 | 1019.3 |
| 20260831082529 | 55 | 0 | 0.0 | 2.0 | 0.00 | 0.00 | 0.00 | 92 | 1019.3 |
| 20260831082029 | 55 | 0 | 0.0 | 2.0 | 0.00 | 0.00 | 0.00 | 92 | 1019.2 |
| 20260831081550 | 55 | 0 | 0.0 | 1.0 | 0.00 | 0.00 | 0.00 | 92 | 1019.2 |
| 20260831081027 | 55 | 0 | 0.0 | 1.0 | 0.00 | 0.00 | 0.00 | 92 | 1019.2 |
| 20260831080528 | 55 | 0 | 0.0 | 1.0 | 0.00 | 0.00 | 0.00 | 91 | 1019.1 |
| 20260831080046 | 55 | 0 | 0.0 | 1.0 | 0.00 | 0.00 | 0.00 | 91 | 1019.1 |
| 20260831075531 | 55 | 0 | 0.0 | 2.0 | 0.00 | 0.00 | 0.00 | 91 | 1019.2 |
| 20260831075032 | 56 | 0 | 0.0 | 2.0 | 0.00 | 0.00 | 0.00 | 90 | 1019.1 |
| 20260831074557 | 56 | 252 | 0.0 | 2.0 | 0.00 | 0.00 | 0.00 | 90 | 1019.0 |
| 20260831074030 | 56 | 0 | 0.0 | 2.0 | 0.00 | 0.00 | 0.00 | 90 | 1018.9 |
| 20260831073530 | 56 | 0 | 0.0 | 1.0 | 0.00 | 0.00 | 0.00 | 89 | 1018.8 |
| 20260831073050 | 56 | 0 | 0.0 | 3.0 | 0.00 | 0.00 | 0.00 | 89 | 1018.8 |
| 20260831072530 | 56 | 274 | 0.0 | 3.0 | 0.00 | 0.00 | 0.00 | 89 | 1018.6 |
| 20260831072032 | 56 | 0 | 0.0 | 3.0 | 0.00 | 0.00 | 0.00 | 88 | 1018.6 |
| 20260831071601 | 57 | 311 | 0.0 | 1.0 | 0.00 | 0.00 | 0.00 | 87 | 1018.6 |
| 20260831071029 | 57 | 0 | 0.0 | 1.0 | 0.00 | 0.00 | 0.00 | 86 | 1018.6 |
| 20260831070530 | 57 | 0 | 0.0 | 1.0 | 0.00 | 0.00 | 0.00 | 85 | 1018.7 |
| 20260831070045 | 58 | 0 | 0.0 | 1.0 | 0.00 | 0.00 | 0.00 | 85 | 1018.6 |
| 20260831065534 | 58 | 0 | 0.0 | 2.0 | 0.00 | 0.00 | 0.00 | 85 | 1018.6 |
| 20260831065031 | 58 | 0 | 0.0 | 2.0 | 0.00 | 0.00 | 0.00 | 85 | 1018.6 |
| 20260831064544 | 58 | 0 | 0.0 | 4.0 | 0.00 | 0.00 | 0.00 | 85 | 1018.6 |
| 20260831064029 | 58 | 267 | 0.0 | 4.0 | 0.00 | 0.00 | 0.00 | 84 | 1018.6 |
| 20260831063529 | 59 | 0 | 0.0 | 4.0 | 0.00 | 0.00 | 0.00 | 84 | 1018.5 |
| 20260831063042 | 59 | 0 | 0.0 | 2.0 | 0.00 | 0.00 | 0.00 | 83 | 1018.5 |
| 20260831062529 | 59 | 330 | 0.0 | 3.0 | 0.00 | 0.00 | 0.00 | 83 | 1018.4 |
| 20260831062032 | 59 | 0 | 0.0 | 3.0 | 0.00 | 0.00 | 0.00 | 82 | 1018.6 |
| 20260831061551 | 59 | 0 | 0.0 | 3.0 | 0.00 | 0.00 | 0.00 | 82 | 1018.6 |
| 20260831061029 | 59 | 338 | 0.0 | 3.0 | 0.00 | 0.00 | 0.00 | 82 | 1018.6 |
| 20260831060530 | 59 | 355 | 0.0 | 3.0 | 0.00 | 0.00 | 0.00 | 81 | 1018.5 |
| 20260831060058 | 59 | 311 | 0.0 | 5.0 | 0.00 | 0.00 | 0.00 | 81 | 1018.6 |
| 20260831055529 | 60 | 0 | 0.0 | 5.0 | 0.00 | 0.00 | 0.00 | 81 | 1018.6 |
| 20260831055029 | 60 | 315 | 1.0 | 4.0 | 0.00 | 0.00 | 0.00 | 81 | 1018.5 |
| 20260831054544 | 60 | 0 | 0.0 | 4.0 | 0.00 | 0.00 | 0.00 | 80 | 1018.5 |
| 20260831054033 | 60 | 0 | 1.0 | 6.0 | 0.00 | 0.00 | 0.00 | 80 | 1018.5 |
| 20260831053530 | 60 | 355 | 1.0 | 6.0 | 0.00 | 0.00 | 0.00 | 80 | 1018.6 |
| 20260831053104 | 60 | 0 | 1.0 | 7.0 | 0.00 | 0.00 | 0.00 | 80 | 1018.5 |
| 20260831052529 | 60 | 275 | 1.0 | 7.0 | 0.00 | 0.00 | 0.00 | 80 | 1018.6 |
| 20260831052029 | 61 | 322 | 1.0 | 7.0 | 0.00 | 0.00 | 0.00 | 80 | 1018.5 |
| 20260831051549 | 61 | 270 | 1.0 | 8.0 | 0.00 | 0.00 | 0.00 | 80 | 1018.5 |
| 20260831051029 | 61 | 308 | 1.0 | 8.0 | 0.00 | 0.00 | 0.00 | 80 | 1018.5 |
| 20260831050529 | 61 | 0 | 2.0 | 9.0 | 0.00 | 0.00 | 0.00 | 80 | 1018.4 |
| 20260831050105 | 61 | 0 | 2.0 | 9.0 | 0.00 | 0.00 | 0.00 | 81 | 1018.4 |
| 20260831045531 | 61 | 327 | 2.0 | 9.0 | 0.00 | 0.00 | 0.00 | 82 | 1018.4 |
| 20260831045032 | 61 | 0 | 0.0 | 5.0 | 0.00 | 0.00 | 0.00 | 83 | 1018.3 |
| 20260831044543 | 62 | 322 | 1.0 | 5.0 | 0.00 | 0.00 | 0.00 | 83 | 1018.2 |
| 20260831044030 | 62 | 260 | 1.0 | 4.0 | 0.00 | 0.00 | 0.00 | 84 | 1018.2 |
| 20260831043529 | 62 | 300 | 0.0 | 4.0 | 0.00 | 0.00 | 0.00 | 85 | 1018.2 |
| 20260831043055 | 62 | 0 | 0.0 | 4.0 | 0.00 | 0.00 | 0.00 | 86 | 1018.3 |
| 20260831042529 | 63 | 355 | 0.0 | 3.0 | 0.00 | 0.00 | 0.00 | 86 | 1018.3 |
| 20260831042034 | 63 | 0 | 1.0 | 3.0 | 0.00 | 0.00 | 0.00 | 87 | 1018.3 |
| 20260831041608 | 63 | 0 | 0.0 | 3.0 | 0.00 | 0.00 | 0.00 | 87 | 1018.3 |
| 20260831041033 | 63 | 0 | 0.0 | 4.0 | 0.00 | 0.00 | 0.00 | 87 | 1018.3 |
| 20260831040531 | 63 | 0 | 1.0 | 7.0 | 0.00 | 0.00 | 0.00 | 87 | 1018.3 |
| 20260831040043 | 63 | 313 | 1.0 | 7.0 | 0.00 | 0.00 | 0.00 | 87 | 1018.1 |
| 20260831035529 | 63 | 330 | 1.0 | 4.0 | 0.00 | 0.00 | 0.00 | 87 | 1018.3 |
| 20260831035028 | 63 | 15 | 2.0 | 4.0 | 0.00 | 0.00 | 0.00 | 87 | 1018.1 |
| 20260831034545 | 63 | 5 | 1.0 | 4.0 | 0.00 | 0.00 | 0.00 | 87 | 1018.1 |
| 20260831034029 | 63 | 340 | 1.0 | 4.0 | 0.00 | 0.00 | 0.00 | 86 | 1018.1 |
| 20260831033531 | 64 | 317 | 0.0 | 3.0 | 0.00 | 0.00 | 0.00 | 86 | 1018.0 |
| 20260831033109 | 64 | 0 | 0.0 | 3.0 | 0.00 | 0.00 | 0.00 | 86 | 1018.0 |
| 20260831032533 | 64 | 325 | 0.0 | 3.0 | 0.00 | 0.00 | 0.00 | 85 | 1018.0 |
| 20260831032028 | 64 | 341 | 0.0 | 3.0 | 0.00 | 0.00 | 0.00 | 85 | 1018.0 |
| 20260831031553 | 64 | 0 | 0.0 | 3.0 | 0.00 | 0.00 | 0.00 | 84 | 1018.0 |
| 20260831031028 | 64 | 0 | 0.0 | 3.0 | 0.00 | 0.00 | 0.00 | 85 | 1018.2 |
| 20260831030531 | 64 | 0 | 0.0 | 2.0 | 0.00 | 0.00 | 0.00 | 84 | 1018.1 |
| 20260831030047 | 64 | 266 | 0.0 | 2.0 | 0.00 | 0.00 | 0.00 | 84 | 1018.2 |
| 20260831025529 | 65 | 344 | 0.0 | 4.0 | 0.00 | 0.00 | 0.00 | 84 | 1018.2 |
| 20260831025029 | 65 | 0 | 0.0 | 4.0 | 0.00 | 0.00 | 0.00 | 83 | 1018.1 |
| 20260831024541 | 65 | 0 | 1.0 | 4.0 | 0.00 | 0.00 | 0.00 | 83 | 1018.1 |
| 20260831024030 | 65 | 265 | 1.0 | 4.0 | 0.00 | 0.00 | 0.00 | 83 | 1018.0 |
| 20260831023532 | 65 | 265 | 1.0 | 7.0 | 0.00 | 0.00 | 0.00 | 83 | 1018.1 |
| 20260831023053 | 65 | 0 | 1.0 | 7.0 | 0.00 | 0.00 | 0.00 | 83 | 1017.9 |
| 20260831022527 | 65 | 315 | 2.0 | 5.0 | 0.00 | 0.00 | 0.00 | 83 | 1018.0 |
| 20260831022030 | 65 | 0 | 1.0 | 5.0 | 0.00 | 0.00 | 0.00 | 83 | 1017.9 |
| 20260831021548 | 65 | 0 | 0.0 | 5.0 | 0.00 | 0.00 | 0.00 | 83 | 1017.8 |
| 20260831021029 | 65 | 317 | 0.0 | 5.0 | 0.00 | 0.00 | 0.00 | 83 | 1017.9 |
| 20260831020533 | 65 | 317 | 1.0 | 7.0 | 0.00 | 0.00 | 0.00 | 83 | 1017.8 |
| 20260831020044 | 65 | 321 | 2.0 | 7.0 | 0.00 | 0.00 | 0.00 | 83 | 1017.8 |
| 20260831015536 | 65 | 254 | 2.0 | 4.0 | 0.00 | 0.00 | 0.00 | 83 | 1017.8 |
| 20260831015032 | 65 | 253 | 1.0 | 4.0 | 0.00 | 0.00 | 0.00 | 83 | 1017.7 |
| 20260831014542 | 65 | 286 | 1.0 | 6.0 | 0.00 | 0.00 | 0.00 | 83 | 1017.6 |
| 20260831014029 | 65 | 259 | 2.0 | 6.0 | 0.00 | 0.00 | 0.00 | 83 | 1017.5 |
| 20260831013529 | 65 | 248 | 0.0 | 4.0 | 0.00 | 0.00 | 0.00 | 83 | 1017.5 |
| 20260831013056 | 65 | 268 | 1.0 | 6.0 | 0.00 | 0.00 | 0.00 | 82 | 1017.5 |
| 20260831012531 | 66 | 0 | 1.0 | 6.0 | 0.00 | 0.00 | 0.00 | 82 | 1017.4 |
| 20260831012031 | 66 | 293 | 1.0 | 8.0 | 0.00 | 0.00 | 0.00 | 82 | 1017.5 |
| 20260831011547 | 66 | 263 | 2.0 | 12.0 | 0.00 | 0.00 | 0.00 | 82 | 1017.4 |
| 20260831011029 | 66 | 259 | 2.0 | 12.0 | 0.00 | 0.00 | 0.00 | 81 | 1017.2 |
| 20260831010529 | 66 | 275 | 3.0 | 8.0 | 0.00 | 0.00 | 0.00 | 82 | 1017.1 |
| 20260831010058 | 66 | 266 | 3.0 | 13.0 | 0.00 | 0.00 | 0.00 | 82 | 1017.3 |
| 20260831005531 | 66 | 271 | 5.0 | 13.0 | 0.00 | 0.00 | 0.00 | 83 | 1017.2 |
| 20260831005030 | 66 | 286 | 4.0 | 13.0 | 0.00 | 0.00 | 0.00 | 83 | 1017.3 |
| 20260831004545 | 66 | 73 | 4.0 | 11.0 | 0.00 | 0.00 | 0.00 | 82 | 1017.1 |
| 20260831004030 | 66 | 319 | 3.0 | 8.0 | 0.00 | 0.00 | 0.00 | 82 | 1017.1 |
| 20260831003535 | 67 | 301 | 3.0 | 10.0 | 0.00 | 0.00 | 0.00 | 80 | 1017.1 |
| 20260831003057 | 67 | 352 | 2.0 | 10.0 | 0.00 | 0.00 | 0.00 | 80 | 1016.7 |
| 20260831002530 | 67 | 289 | 2.0 | 10.0 | 0.00 | 0.00 | 0.00 | 79 | 1016.7 |
| 20260831002033 | 67 | 349 | 3.0 | 10.0 | 0.00 | 0.00 | 0.00 | 78 | 1016.7 |
| 20260831001541 | 67 | 287 | 3.0 | 10.0 | 0.00 | 0.00 | 0.00 | 78 | 1016.5 |
| 20260831001030 | 68 | 352 | 4.0 | 10.0 | 0.00 | 0.00 | 0.00 | 77 | 1016.6 |
| 20260831000530 | 68 | 279 | 4.0 | 11.0 | 0.00 | 0.00 | 0.00 | 76 | 1016.4 |
| 20260831000043 | 68 | 296 | 4.0 | 11.0 | 0.00 | 0.00 | 0.00 | 76 | 1016.3 |
| 20260830235530 | 68 | 301 | 4.0 | 9.0 | 0.00 | 0.00 | 0.00 | 76 | 1016.2 |
| 20260830235033 | 69 | 239 | 3.0 | 7.0 | 0.00 | 0.00 | 0.00 | 76 | 1016.2 |
| 20260830234552 | 69 | 246 | 1.0 | 7.0 | 0.00 | 0.00 | 0.00 | 76 | 1016.1 |
| 20260830234029 | 69 | 0 | 2.0 | 11.0 | 0.00 | 0.00 | 0.00 | 75 | 1016.2 |
| 20260830233536 | 69 | 294 | 2.0 | 11.0 | 0.00 | 0.00 | 0.00 | 75 | 1016.1 |
| 20260830233042 | 69 | 256 | 4.0 | 11.0 | 0.00 | 0.00 | 0.00 | 75 | 1016.0 |
| 20260830232530 | 69 | 252 | 2.0 | 10.0 | 0.00 | 0.00 | 0.00 | 75 | 1016.0 |
| 20260830232030 | 69 | 272 | 4.0 | 12.0 | 0.00 | 0.00 | 0.00 | 75 | 1016.0 |
| 20260830231548 | 69 | 224 | 4.0 | 13.0 | 0.00 | 0.00 | 0.00 | 75 | 1015.9 |
| 20260830231030 | 69 | 254 | 4.0 | 13.0 | 0.00 | 0.00 | 0.00 | 75 | 1015.9 |
| 20260830230529 | 70 | 271 | 4.0 | 12.0 | 0.00 | 0.00 | 0.00 | 74 | 1015.8 |
| 20260830230048 | 70 | 247 | 5.0 | 12.0 | 0.00 | 0.00 | 0.00 | 74 | 1015.8 |
| 20260830225527 | 70 | 262 | 4.0 | 10.0 | 0.00 | 0.00 | 0.00 | 74 | 1015.9 |
| 20260830225027 | 70 | 257 | 4.0 | 9.0 | 0.00 | 0.00 | 0.00 | 74 | 1016.0 |
| 20260830224555 | 70 | 240 | 0.0 | 3.0 | 0.00 | 0.00 | 0.00 | 74 | 1015.9 |
| 20260830224032 | 70 | 0 | 0.0 | 3.0 | 0.00 | 0.00 | 0.00 | 73 | 1016.1 |
| 20260830223530 | 71 | 0 | 0.0 | 3.0 | 0.00 | 0.00 | 0.00 | 73 | 1015.9 |
| 20260830223047 | 71 | 0 | 0.0 | 2.0 | 0.00 | 0.00 | 0.00 | 73 | 1016.0 |
| 20260830222528 | 71 | 0 | 0.0 | 2.0 | 0.00 | 0.00 | 0.00 | 72 | 1015.9 |
| 20260830222039 | 71 | 0 | 0.0 | 2.0 | 0.00 | 0.00 | 0.00 | 71 | 1016.0 |
| 20260830221542 | 71 | 242 | 0.0 | 2.0 | 0.00 | 0.00 | 0.00 | 71 | 1015.9 |
| 20260830221029 | 71 | 261 | 0.0 | 2.0 | 0.00 | 0.00 | 0.00 | 70 | 1015.9 |
| 20260830220529 | 72 | 0 | 0.0 | 2.0 | 0.00 | 0.00 | 0.00 | 70 | 1016.0 |
| 20260830220056 | 72 | 0 | 0.0 | 3.0 | 0.00 | 0.00 | 0.00 | 69 | 1015.9 |
| 20260830215534 | 72 | 265 | 0.0 | 3.0 | 0.00 | 0.00 | 0.00 | 68 | 1016.0 |
| 20260830215030 | 72 | 273 | 1.0 | 3.0 | 0.00 | 0.00 | 0.00 | 68 | 1016.0 |
| 20260830214548 | 72 | 213 | 1.0 | 3.0 | 0.00 | 0.00 | 0.00 | 68 | 1016.0 |
| 20260830214029 | 72 | 246 | 0.0 | 3.0 | 0.00 | 0.00 | 0.00 | 67 | 1016.1 |
| 20260830213532 | 72 | 229 | 1.0 | 4.0 | 0.00 | 0.00 | 0.00 | 68 | 1016.1 |
| 20260830213043 | 72 | 273 | 1.0 | 4.0 | 0.00 | 0.00 | 0.00 | 67 | 1016.0 |
| 20260830212530 | 72 | 220 | 1.0 | 4.0 | 0.00 | 0.00 | 0.00 | 66 | 1016.0 |
| 20260830212030 | 72 | 228 | 1.0 | 5.0 | 0.00 | 0.00 | 0.00 | 66 | 1016.1 |
| 20260830211539 | 72 | 209 | 1.0 | 6.0 | 0.00 | 0.00 | 0.00 | 65 | 1016.0 |
| 20260830211030 | 72 | 252 | 3.0 | 6.0 | 0.00 | 0.00 | 0.00 | 65 | 1016.2 |
| 20260830210530 | 73 | 244 | 2.0 | 4.0 | 0.00 | 0.00 | 0.00 | 66 | 1016.2 |
| 20260830210100 | 73 | 229 | 1.0 | 4.0 | 0.00 | 0.00 | 0.00 | 65 | 1016.3 |
| 20260830205531 | 72 | 198 | 1.0 | 5.0 | 0.00 | 0.00 | 0.00 | 65 | 1016.2 |
| 20260830205029 | 72 | 299 | 1.0 | 5.0 | 0.00 | 0.00 | 0.00 | 66 | 1016.4 |
| 20260830204548 | 72 | 254 | 0.0 | 4.0 | 0.00 | 0.00 | 0.00 | 67 | 1016.3 |
| 20260830204029 | 72 | 263 | 1.0 | 4.0 | 0.00 | 0.00 | 0.00 | 67 | 1016.5 |
| 20260830203530 | 72 | 277 | 1.0 | 4.0 | 0.00 | 0.00 | 0.00 | 66 | 1016.5 |
| 20260830203043 | 72 | 292 | 2.0 | 6.0 | 0.00 | 0.00 | 0.00 | 66 | 1016.4 |
| 20260830202530 | 72 | 252 | 2.0 | 6.0 | 0.00 | 0.00 | 0.00 | 65 | 1016.6 |
| 20260830202030 | 72 | 272 | 1.0 | 6.0 | 0.00 | 0.00 | 0.00 | 66 | 1016.5 |
| 20260830201542 | 72 | 265 | 2.0 | 7.0 | 0.00 | 0.00 | 0.00 | 65 | 1016.5 |
| 20260830201029 | 72 | 273 | 1.0 | 7.0 | 0.00 | 0.00 | 0.00 | 64 | 1016.6 |
| 20260830200527 | 72 | 237 | 2.0 | 7.0 | 0.00 | 0.00 | 0.00 | 63 | 1016.7 |
| 20260830200105 | 72 | 248 | 4.0 | 6.0 | 0.00 | 0.00 | 0.00 | 64 | 1016.5 |
| 20260830195529 | 72 | 248 | 3.0 | 8.0 | 0.00 | 0.00 | 0.00 | 62 | 1016.6 |
| 20260830195027 | 72 | 248 | 3.0 | 8.0 | 0.00 | 0.00 | 0.00 | 63 | 1016.7 |
| 20260830194612 | 73 | 209 | 3.0 | 8.0 | 0.00 | 0.00 | 0.00 | 64 | 1016.8 |
| 20260830194029 | 73 | 232 | 4.0 | 8.0 | 0.00 | 0.00 | 0.00 | 62 | 1016.9 |
| 20260830193530 | 73 | 202 | 3.0 | 6.0 | 0.00 | 0.00 | 0.00 | 65 | 1016.9 |
| 20260830193045 | 72 | 224 | 3.0 | 7.0 | 0.00 | 0.00 | 0.00 | 62 | 1017.0 |
| 20260830192530 | 72 | 284 | 2.0 | 8.0 | 0.00 | 0.00 | 0.00 | 64 | 1017.2 |
| 20260830192030 | 72 | 248 | 3.0 | 8.0 | 0.00 | 0.00 | 0.00 | 64 | 1017.2 |
| 20260830191540 | 72 | 235 | 3.0 | 8.0 | 0.00 | 0.00 | 0.00 | 63 | 1017.3 |
| 20260830191029 | 72 | 245 | 2.0 | 7.0 | 0.00 | 0.00 | 0.00 | 65 | 1017.2 |
| 20260830190529 | 71 | 269 | 2.0 | 7.0 | 0.00 | 0.00 | 0.00 | 64 | 1017.3 |
| 20260830190042 | 71 | 252 | 2.0 | 8.0 | 0.00 | 0.00 | 0.00 | 64 | 1017.4 |
| 20260830185533 | 71 | 260 | 3.0 | 8.0 | 0.00 | 0.00 | 0.00 | 63 | 1017.4 |
| 20260830185032 | 71 | 223 | 4.0 | 9.0 | 0.00 | 0.00 | 0.00 | 64 | 1017.4 |
| 20260830184545 | 71 | 262 | 3.0 | 9.0 | 0.00 | 0.00 | 0.00 | 64 | 1017.5 |
| 20260830184029 | 72 | 229 | 3.0 | 10.0 | 0.00 | 0.00 | 0.00 | 63 | 1017.6 |
| 20260830183529 | 72 | 230 | 3.0 | 10.0 | 0.00 | 0.00 | 0.00 | 62 | 1017.7 |
| 20260830183044 | 72 | 290 | 6.0 | 10.0 | 0.00 | 0.00 | 0.00 | 64 | 1017.8 |
| 20260830182530 | 72 | 263 | 3.0 | 10.0 | 0.00 | 0.00 | 0.00 | 63 | 1017.8 |
| 20260830182030 | 72 | 271 | 2.0 | 10.0 | 0.00 | 0.00 | 0.00 | 65 | 1017.9 |
| 20260830181543 | 72 | 196 | 4.0 | 10.0 | 0.00 | 0.00 | 0.00 | 64 | 1017.9 |
| 20260830181032 | 72 | 235 | 4.0 | 9.0 | 0.00 | 0.00 | 0.00 | 64 | 1018.0 |
| 20260830180529 | 72 | 228 | 4.0 | 9.0 | 0.00 | 0.00 | 0.00 | 64 | 1018.1 |
| 20260830180056 | 71 | 242 | 3.0 | 9.0 | 0.00 | 0.00 | 0.00 | 65 | 1018.1 |
| 20260830175527 | 70 | 269 | 2.0 | 10.0 | 0.00 | 0.00 | 0.00 | 66 | 1018.1 |